Wright-Patt AFB, OH

9:41 PM EDT on July 25, 2017 (GMT -0400)
Wright-Patterson Air Force Base

Weather History for KFFO - July, 2014

Change the Weather History Date:

Thursday, July 24, 2014

  Actual Average Record
Temperature  
Mean Temperature 66 °F -  
Max Temperature 75 °F 82 °F 95 °F (2005)
Min Temperature 57 °F 61 °F 51 °F (2004)
Cooling Degree Days 1    
Growing Degree Days 16 (Base 50)    
Moisture  
Dew Point 56 °F    
Average Humidity 71    
Maximum Humidity 93    
Minimum Humidity 47    
Precipitation  
Precipitation 0.00 in - - ()
Sea Level Pressure  
Sea Level Pressure 30.06 in    
Wind  
Wind Speed 9 mph (NNE)    
Max Wind Speed 14 mph    
Max Gust Speed -    
Visibility 10 miles    
Events      
Averages and records for this station are not official NWS values.
T = Trace of Precipitation, MM = Missing Value Source: NWS Daily Summary

Daily Weather History Graph

Daily Weather History Graph

Search for Another Location

Airport or City:

Trip Planner

Search our weather history database for the weather conditions in past years. The results will help you decide how hot, cold, wet, or windy it might be!

Date:

Astronomy

Jul. 24, 2014 Rise Set
Actual Time 6:27 AM EDT 8:57 PM EDT
Civil Twilight 5:56 AM EDT 9:27 PM EDT
Nautical Twilight 5:18 AM EDT 10:06 PM EDT
Astronomical Twilight 4:35 AM EDT 10:48 PM EDT
Moon 4:34 AM EDT (7/24) 7:11 PM EDT (7/24)
Length of Visible Light 15h 31m
Length of Day
14h 29m
Waning Crescent, 5% of the Moon is Illuminated
Jul 24
Waning Crescent
Jul 26
New
Aug 3
First Quarter
Aug 10
Full
Aug 17
Last Quarter

Hourly Weather History & Observations

Time (EDT) Temp. Dew Point Humidity Pressure Visibility Wind Dir Wind Speed Gust Speed Precip Events Conditions
12:58 AM 64.2 °F 59.9 °F 86% 30.04 in 10.0 mi NE 10.4 mph - N/A   Mostly Cloudy
1:58 AM 62.4 °F 58.5 °F 87% 30.04 in 10.0 mi NE 6.9 mph - N/A   Clear
2:58 AM 59.9 °F 56.8 °F 90% 30.03 in 10.0 mi NE 5.8 mph - N/A   Clear
3:58 AM 58.6 °F 56.1 °F 91% 30.04 in 10.0 mi NE 5.8 mph - N/A   Scattered Clouds
4:58 AM 58.8 °F 56.7 °F 93% 30.04 in 10.0 mi North 8.1 mph - N/A   Clear
5:58 AM 58.5 °F 56.5 °F 93% 30.04 in 10.0 mi North 11.5 mph - N/A   Clear
6:58 AM 57.9 °F 55.6 °F 92% 30.05 in 10.0 mi NNE 5.8 mph - N/A   Partly Cloudy
7:58 AM 59.9 °F 56.1 °F 87% 30.06 in 10.0 mi NNE 6.9 mph - N/A   Partly Cloudy
8:08 AM 60.8 °F 55.4 °F 82% 30.07 in 10.0 mi NE 8.1 mph - N/A   Scattered Clouds
8:58 AM 63.3 °F 57.4 °F 81% 30.07 in 10.0 mi NNE 9.2 mph - N/A   Partly Cloudy
9:48 AM 64.4 °F 57.2 °F 77% 30.08 in 10.0 mi NNE 12.7 mph - N/A   Mostly Cloudy
9:58 AM 65.1 °F 57.2 °F 75% 30.08 in 10.0 mi NE 13.8 mph - N/A   Mostly Cloudy
10:08 AM 66.2 °F 57.2 °F 73% 30.07 in 10.0 mi NE 9.2 mph - N/A   Mostly Cloudy
10:48 AM 66.2 °F 57.2 °F 73% 30.08 in 10.0 mi NE 10.4 mph - N/A   Mostly Cloudy
10:58 AM 66.4 °F 57.0 °F 72% 30.07 in 10.0 mi NNE 9.2 mph - N/A   Scattered Clouds
11:58 AM 68.9 °F 55.8 °F 63% 30.08 in 10.0 mi NNE 11.5 mph - N/A   Scattered Clouds
12:58 PM 72.0 °F 55.2 °F 55% 30.08 in 10.0 mi North 9.2 mph - N/A   Mostly Cloudy
1:58 PM 71.8 °F 54.0 °F 53% 30.07 in 10.0 mi North 10.4 mph - N/A   Mostly Cloudy
2:58 PM 73.9 °F 55.0 °F 52% 30.06 in 10.0 mi North 6.9 mph - N/A   Partly Cloudy
3:58 PM 73.9 °F 55.2 °F 52% 30.07 in 10.0 mi North 9.2 mph - N/A   Mostly Cloudy
4:58 PM 75.2 °F 53.8 °F 47% 30.05 in 10.0 mi North 11.5 mph - N/A   Clear
5:58 PM 73.9 °F 52.9 °F 48% 30.04 in 10.0 mi NNE 11.5 mph - N/A   Scattered Clouds
6:58 PM 73.8 °F 52.3 °F 47% 30.03 in 10.0 mi North 10.4 mph - N/A   Clear
7:58 PM 71.8 °F 52.9 °F 51% 30.04 in 10.0 mi NNW 5.8 mph - N/A   Clear
8:58 PM 68.5 °F 53.4 °F 58% 30.06 in 10.0 mi NNW 5.8 mph - N/A   Clear
9:58 PM 64.6 °F 54.5 °F 70% 30.08 in 10.0 mi NNE 6.9 mph - N/A   Clear
10:58 PM 62.1 °F 53.2 °F 73% 30.10 in 10.0 mi NE 6.9 mph - N/A   Clear
11:58 PM 60.1 °F 52.5 °F 76% 30.09 in 10.0 mi North 4.6 mph - N/A   Clear